YAMAL 300K

Last updated on May 23, 2019, 3:05 a.m. UTC

1 38978U 12061B   19142.75815479  .00000064  00000-0  00000+0 0  9997
2 38978   0.0172 333.8064 0000659 142.5072 219.6479  1.00275035 23977
UTC
Height (km)
Latitude
Longitude
Inclination
Orbital Period
UTC large
Height (km)
Speed (km/s)
/
Latitude / Longitude
Inclination (degrees)
Orbital Period (minutes)
Azimuth
Elevation
Range (km)
Doppler Factor
iOS Compass Heading
iOS Angle

Next 30 passes for location: Hong Kong

Rise time Rise Azimuth (degrees) Set time Set Azimuth (degrees) Duration Max altitude (degrees)

No matching passes for this satellites